Terminal Aerodrome Forecast
Issued by NWS Mt. Holly, NJ

Home | Current Version | Previous Version | Text Only | Print | Product List | Glossary On
Versions: 1 2 3 4 5 6 7 8 9 10 11 12 13 14 15 16 17 18 19 20 21 22 23 24 25 26 27 28 29 30 31 32 33 34 35 36 37 38 39 40
000
FTUS41 KPHI 061926 AAA
TAFABE
TAF AMD
KABE 061926Z 0619/0718 07005KT P6SM -SHRA OVC070
     FM062100 09005KT P6SM BKN050
     FM070100 VRB03KT P6SM BKN050
     FM071200 13004KT P6SM BKN050=

USA.gov is the U.S. government's official web portal to all federal, state and local government web resources and services.